SCP
-0 -0 -0 -0 -0 -0 -0 -0 -0 0 0 -0 0 0 0 0 0 0 0 0 0 0 0 0 -0 -0 -0 -0 -0 0 0 0 0 0 0 0 0 0 0 -0 0 0 0 0
-0 -0 -0 -0 -0 -0 -0 -0 -0 -0 -0 -0 -0 0 0 0 0 0 0 0 0 0 -0 -0 -0 -0 -0 -0 -0 -0 -0 -0 -0 -0 0 -0 -0 -0 -0 -0 0 0 -0 0
-0 -0 0 -0 -0 -0 -0 -0 0 -0 -0 -0 0 0 -0 0 0 0 0 0 0 -0 -0 -0 -0 -0 -0 -0 -0 -0 -0 -0 -0 -0 -0 -0 -0 -0 0 0 0 0 -0 -0
-0 -0 0 -0 -0 0 -0 -0 -0 -0 0 -0 -0 -0 -0 -0 0 0 0 0 0 -0 -0 -0 -0 -0 -0 -0 -0 -0 -0 -0 -0 -0 -0 -0 -0 -0 -0 -0 -0 -0 -0 -0
-0 0 -0 -0 0 0 -0 -0 -0 0 0 0 0 0 -0 0 -0 0 0 0 0 -0 -0 -0 -0 -0 -0 -0 -0 -0 -0 -0 -0 -0 -0 -0 -0 -0 -0 -0 -0 -0 0 0
0 -0 0 -0 -0 -0 -0 -0 0 0 0 0 0 0 0 0 0 0 0 0 0 -0 -0 -0 -0 -0 -0 -0 -0 -0 -0 -0 -0 -0 -0 -0 -0 -0 -0 -0 -0 -0 -0 -0
0 0 -0 0 -0 -0 0 0 0 0 0 0 0 0 -0 0 0 0 0 0 0 -0 -0 -0 -0 -0 -0 -0 -0 -0 -0 -0 -0 -0 -0 -0 -0 -0 -0 -0 -0 -0 -0 -0
0 0 0 0 0 0 0 0 0 0 0 0 0 0 0 0 0 0 0 0 0 0 -0 -0 -0 -0 -0 -0 -0 -0 -0 -0 -0 -0 -0 -0 -0 -0 -0 -0 -0 -0 -0 -0
0 0 0 0 0 0 0 0 0 0 0 0 0 0 0 0 0 0 0 0 0 0 0 0 0 0 0 -0 -0 0 -0 -0 -0 -0 -0 -0 -0 -0 -0 0 -0 -0 -0 -0
0 0 0 0 0 0 0 0 0 0 0 0 0 0 0 0 0 0 0 0 0 0 0 0 0 0 0 0 0 0 0 0 0 -0 -0 -0 -0 -0 -0 -0 0 0 0 0
0 0 0 0 0 0 0 0 0 0 0 0 0 0 0 0 0 0 0 0 0 0 0 0 0 0 0 0 0 0 0 0 0 0 0 0 -0 -0 -0 -0 0 0 0 -0
0 0 0 0 0 0 0 0 0 0 0 0 0 0 0 0 0 0 0 0 0 0 0 0 0 0 0 0 0 0 0 0 0 0 0 0 0 0 -0 -0 0 0 0 0
0 0 0 0 0 0 0 0 0 0 0 0 0 0 0 0 0 0 0 0 0 0 0 0 0 0 0 0 0 0 0 0 0 0 0 0 0 0 -0 -0 0 0 0 0
0 0 0 0 0 0 0 0 0 0 0 0 0 0 0 0 0 0 0 0 0 0 0 0 0 0 0 0 0 0 0 0 0 0 0 0 0 0 0 0 0 0 0 0
0 0 0 0 0 0 0 0 0 0 0 0 0 0 0 0 0 0 0 0 0 0 0 0 0 0 0 0 0 0 0 0 0 0 0 0 0 0 0 0 0 0 0 -0
0 0 0 0 0 0 0 0 0 0 0 0 0 0 0 0 0 0 0 0 0 0 0 0 0 0 0 0 0 0 0 0 0 0 0 0 0 0 0 0 0 0 0 0
0 0 0 0 0 0 0 0 0 0 0 0 0 0 0 0 0 0 0 0 0 0 0 0 0 0 0 0 0 0 0 0 0 0 0 0 0 0 0 0 0 0 0 0
0 0 0 0 0 0 0 0 0 0 0 0 0 0 0 0 0 0 0 0 0 0 0 0 0 0 0 0 0 0 0 0 0 0 0 0 0 0 0 0 0 0 0 0
0 0 0 0 0 0 0 0 0 0 0 0 0 0 0 0 0 0 0 0 0 0 0 0 0 0 0 0 0 0 0 0 0 0 0 0 0 0 0 0 0 0 0 0
0 0 0 0 0 0 0 0 0 0 0 0 0 0 0 0 0 0 0 0 0 0 0 0 0 0 0 0 0 0 0 0 0 0 0 0 0 0 0 0 0 0 0 0
0 0 0 0 0 0 0 0 0 0 0 0 0 0 0 0 0 0 0 0 0 0 0 0 0 0 0 0 0 0 0 0 0 0 0 0 0 0 0 0 0 0 0 0
0 0 0 0 0 0 0 0 0 0 0 0 0 0 0 0 0 0 0 0 0 0 0 0 0 0 0 0 0 0 0 0 0 0 0 0 0 0 0 0 0 0 -0 -0
0 0 0 0 0 0 0 0 0 0 0 0 0 0 0 0 0 0 0 0 0 0 0 0 0 0 0 0 0 0 0 0 0 0 0 0 0 0 0 -0 -0 -0 -0 -0
0 0 0 0 0 0 0 0 0 0 0 0 0 0 0 0 0 0 0 0 0 0 0 0 0 0 0 0 0 0 0 0 0 0 0 0 0 0 0 0 0 -0 0 -0
0 0 0 0 0 0 0 0 0 0 0 0 0 0 0 0 0 0 0 0 0 0 0 0 0 0 0 0 0 0 0 0 0 0 0 0 0 0 -0 -0 -0 0 0 0
0 0 0 0 0 0 0 0 0 0 0 0 0 0 0 0 0 0 0 0 0 0 0 0 0 0 0 0 0 0 0 0 0 0 0 0 0 0 -0 -0 -0 0 0 0
Wind_Speed_500mb
41 29 14 13 12 7 11 16 16 6 4 16 16 17 11 21 28 29 34 40 44 46 46 51 55 60 64 68 72 75 73 72 72 73 74 71 69 65 62 62 65 64 59 59
16 21 13 8 9 16 14 14 9 6 10 12 16 11 7 12 16 24 26 30 35 41 47 49 53 58 63 68 74 76 73 71 71 70 69 70 69 67 67 64 65 68 69 67
20 6 17 7 17 11 11 9 3 6 7 12 11 2 5 5 13 16 22 25 30 38 47 52 51 53 59 66 70 74 70 67 68 70 70 69 67 67 70 72 72 72 69 69
18 18 9 12 14 9 6 4 3 9 6 8 5 6 8 8 6 6 10 18 24 30 40 48 50 51 54 57 62 68 68 64 65 67 69 72 74 76 73 72 70 69 69 70
1 12 14 14 7 8 4 2 6 4 7 7 9 6 6 9 9 8 2 10 21 30 40 50 52 48 48 51 56 63 66 61 64 68 69 71 69 68 70 72 74 72 69 68
7 5 8 5 6 6 5 5 9 7 5 7 8 7 6 9 10 8 8 2 11 21 36 45 50 46 42 42 49 59 62 58 62 67 69 70 70 71 72 74 77 78 77 74
7 8 9 13 7 8 14 9 5 9 8 7 7 6 13 6 7 17 18 7 3 18 45 50 53 47 45 35 43 53 52 55 62 70 75 73 70 69 72 73 75 76 77 77
7 9 13 24 6 2 8 8 8 7 2 8 10 8 7 6 14 16 11 9 8 17 53 48 50 46 45 31 39 45 45 52 62 72 80 80 73 69 68 70 73 74 74 72
8 2 7 7 9 3 7 10 6 14 2 7 5 12 5 3 9 15 17 13 17 31 49 48 48 45 43 31 38 41 45 53 62 76 84 80 71 67 69 70 70 72 73 75
6 6 3 8 3 20 12 10 6 8 5 8 9 10 9 11 15 20 21 22 17 48 47 49 46 43 35 31 38 42 44 53 67 79 82 74 70 69 69 71 73 74 74 73
5 6 6 4 9 1 7 4 12 9 6 8 2 12 12 12 11 17 30 21 33 46 45 48 44 39 38 35 39 46 46 56 70 82 73 73 72 73 77 77 75 76 78 79
3 8 4 1 5 5 3 6 7 8 8 1 5 14 3 13 17 13 15 23 55 42 42 43 44 46 41 38 44 49 52 61 74 80 70 72 74 76 82 81 78 78 80 78
9 3 6 14 8 6 4 7 9 9 6 11 10 11 3 12 11 16 26 51 50 41 40 41 44 48 43 42 49 53 58 69 79 84 79 76 79 82 89 84 82 82 82 81
8 6 10 12 10 7 3 5 7 11 7 8 16 15 19 17 14 40 51 52 50 44 39 40 42 46 47 47 51 55 64 70 79 78 76 78 82 90 88 84 85 87 86 83
7 7 3 7 9 5 10 14 19 19 12 13 6 17 34 16 22 45 58 53 52 50 44 42 43 48 54 53 51 56 65 74 78 80 75 79 88 87 83 86 89 90 88 82
5 3 4 8 6 6 18 26 28 30 26 29 37 43 72 74 65 53 48 47 53 58 55 52 50 49 58 60 60 60 67 73 76 78 77 85 86 83 86 88 91 91 87 82
9 11 6 10 8 12 18 17 27 17 12 36 26 28 23 20 32 43 40 49 58 61 66 66 60 57 61 61 59 64 69 73 75 72 81 84 81 86 86 88 92 92 87 80
11 9 5 6 6 2 7 5 12 21 17 32 14 21 34 48 51 49 59 59 57 56 60 61 65 63 65 64 61 62 67 72 69 74 80 79 81 82 86 93 93 89 83 79
5 9 3 4 6 16 17 8 14 16 18 34 32 50 60 68 30 49 47 48 60 57 64 65 61 65 70 69 59 64 70 68 69 76 77 80 78 84 87 90 87 82 80 77
6 8 8 6 8 14 9 3 11 15 10 30 42 49 48 32 7 19 51 50 63 65 68 62 62 58 63 60 61 67 66 67 70 75 77 72 73 78 83 84 82 76 74 74
9 3 17 8 9 17 27 15 18 9 13 22 25 27 38 18 42 64 63 68 65 60 63 62 54 62 64 60 62 67 64 64 72 74 66 65 70 74 79 81 76 73 71 72
17 19 10 8 5 20 33 19 17 25 17 22 25 29 39 51 62 69 68 69 67 62 68 62 60 63 60 59 62 62 64 68 69 65 60 63 70 75 77 80 76 71 70 72
6 15 12 25 18 12 55 33 36 47 40 44 49 64 68 69 73 73 73 71 69 70 68 58 62 62 61 60 60 61 64 67 65 60 62 66 72 76 79 80 77 73 69 70
11 21 8 4 23 64 54 63 64 67 70 78 77 78 76 75 72 76 73 74 71 70 62 56 57 59 57 57 61 63 65 60 56 59 65 69 76 81 81 78 74 72 68 68
12 28 10 14 43 55 58 77 85 73 67 70 69 69 72 72 78 74 70 66 65 66 62 60 61 54 54 58 60 64 62 57 56 60 66 72 78 83 86 77 72 68 64 59
31 17 13 24 53 45 56 59 56 55 61 69 73 81 82 74 69 66 68 68 68 66 62 61 53 54 57 57 54 56 56 56 61 66 71 76 82 84 82 77 74 62 63 55
Wind_Direction_500mb
32 58 32 323 349 58 91 85 92 15 355 66 78 96 83 76 72 63 59 55 52 48 42 38 35 29 26 21 17 14 10 10 6 5 3 3 3 1 1 3 2 1 0 359
48 52 331 300 19 62 49 83 50 53 7 93 122 98 109 89 79 73 65 57 52 46 39 35 32 28 24 20 16 14 13 12 10 8 5 1 357 359 358 357 357 357 356 356
77 301 330 64 42 57 40 70 14 127 92 54 134 51 207 115 105 77 63 60 50 39 32 29 25 21 18 16 13 11 11 11 11 9 6 3 359 358 354 355 353 353 351 350
74 357 19 39 61 3 74 340 194 126 85 152 0 271 265 189 160 85 62 55 44 38 30 21 17 14 10 10 9 8 7 7 8 7 5 5 5 2 1 355 351 348 347 347
143 4 15 36 7 337 88 43 126 99 92 86 342 71 260 138 225 208 151 48 42 35 19 11 3 358 357 358 1 3 3 3 5 5 3 1 359 357 355 353 352 352 351 347
92 47 50 313 306 343 294 125 46 56 64 32 274 109 255 190 205 171 197 113 42 27 6 357 354 346 338 345 353 357 359 359 358 358 356 354 352 350 349 349 348 349 348 348
7 25 342 22 350 12 46 55 356 5 17 208 336 33 247 212 180 170 184 189 18 17 359 351 347 345 342 334 346 350 355 358 1 0 356 348 343 342 343 344 344 343 343 344
58 348 12 347 69 260 30 117 134 208 318 279 330 242 255 212 178 170 190 227 274 320 347 345 346 340 340 331 337 344 348 349 351 351 350 348 341 335 336 337 336 337 337 337
107 348 330 42 25 59 300 48 148 104 75 42 271 284 263 172 196 212 234 253 281 325 334 336 335 336 330 323 330 336 338 342 346 346 343 342 338 333 330 329 330 330 331 330
212 53 14 300 347 36 85 143 49 12 50 318 292 280 244 217 227 236 241 248 289 326 334 333 332 331 328 314 320 326 329 337 341 342 338 336 335 331 329 326 325 325 325 325
131 100 287 6 26 57 10 55 54 109 105 160 273 271 214 200 225 225 241 254 315 329 332 337 336 331 321 309 313 319 323 331 336 337 333 332 332 330 330 327 324 324 322 322
33 138 101 240 284 257 256 183 123 115 263 179 137 272 207 222 235 211 244 256 319 320 324 331 333 331 323 309 311 316 320 326 332 335 330 327 327 326 328 325 323 324 323 320
180 338 16 343 357 4 191 180 111 102 81 207 139 262 272 231 239 228 275 300 306 311 317 323 329 330 323 315 313 315 317 322 328 331 326 325 325 323 324 322 321 320 321 320
118 97 166 196 205 134 194 203 154 127 130 189 231 291 264 246 250 279 293 303 303 306 311 318 323 328 324 317 312 311 314 319 324 325 322 322 322 321 320 319 319 319 319 318
117 170 149 271 271 338 244 217 182 201 182 178 255 218 264 269 280 291 297 297 298 298 298 304 314 323 321 312 313 312 313 315 320 321 313 315 318 318 315 315 316 318 318 316
104 217 88 303 4 310 273 255 226 222 228 249 257 272 271 274 275 275 281 293 299 300 294 292 297 306 319 313 303 308 309 310 313 315 311 315 315 314 314 313 314 316 316 314
124 134 93 266 335 330 291 241 194 187 197 217 226 234 268 266 259 269 289 301 301 305 307 294 288 298 312 309 306 302 305 306 309 308 312 313 312 312 312 312 312 313 315 313
132 104 88 241 4 100 237 189 172 199 230 220 262 256 254 260 271 282 288 292 292 303 309 306 299 298 304 306 300 300 303 306 303 308 312 311 311 312 313 312 311 311 311 311
150 120 74 161 207 300 286 186 167 174 258 240 224 251 261 274 280 287 292 292 302 299 304 299 299 302 298 300 297 300 310 303 302 308 311 312 313 315 316 315 313 312 309 309
96 63 124 81 171 230 238 152 180 145 284 242 215 238 254 266 268 263 302 300 302 297 300 298 299 303 301 301 295 303 305 298 302 309 312 314 317 319 319 317 315 313 310 309
146 196 217 202 246 281 252 194 153 89 244 183 212 252 255 207 263 297 298 297 302 307 306 304 297 304 302 298 298 302 296 297 305 309 311 315 319 322 322 318 317 314 312 310
165 164 196 149 159 277 185 141 176 221 208 237 244 264 265 278 291 301 304 306 307 302 306 300 301 303 300 297 299 298 297 302 306 306 310 316 320 323 324 320 317 314 313 311
223 197 186 195 204 232 188 209 244 260 266 273 279 291 296 296 298 299 300 302 299 302 304 299 300 301 300 300 299 296 299 302 304 305 312 317 320 323 325 322 318 315 314 314
247 204 232 99 226 242 241 249 255 263 267 280 286 289 291 290 293 295 299 303 302 306 306 303 302 299 297 297 296 298 299 301 301 305 313 317 319 322 323 322 318 316 316 316
194 156 225 254 268 267 261 264 271 277 281 282 284 287 290 292 296 300 302 301 305 306 305 299 297 295 297 296 297 298 299 302 305 309 314 317 319 321 321 321 319 317 316 318
196 195 204 253 251 249 269 276 280 278 277 283 285 290 295 296 295 301 300 300 304 301 296 294 292 295 297 297 298 296 297 302 308 313 317 319 320 320 321 320 318 316 318 318
Wind_Speed_850mb
41 29 14 13 12 7 11 16 16 6 4 16 16 17 11 21 28 29 34 40 44 46 46 51 55 60 64 68 72 75 73 72 72 73 74 71 69 65 62 62 65 64 59 59
16 21 13 8 9 16 14 14 9 6 10 12 16 11 7 12 16 24 26 30 35 41 47 49 53 58 63 68 74 76 73 71 71 70 69 70 69 67 67 64 65 68 69 67
20 6 17 7 17 11 11 9 3 6 7 12 11 2 5 5 13 16 22 25 30 38 47 52 51 53 59 66 70 74 70 67 68 70 70 69 67 67 70 72 72 72 69 69
18 18 9 12 14 9 6 4 3 9 6 8 5 6 8 8 6 6 10 18 24 30 40 48 50 51 54 57 62 68 68 64 65 67 69 72 74 76 73 72 70 69 69 70
1 12 14 14 7 8 4 2 6 4 7 7 9 6 6 9 9 8 2 10 21 30 40 50 52 48 48 51 56 63 66 61 64 68 69 71 69 68 70 72 74 72 69 68
7 5 8 5 6 6 5 5 9 7 5 7 8 7 6 9 10 8 8 2 11 21 36 45 50 46 42 42 49 59 62 58 62 67 69 70 70 71 72 74 77 78 77 74
7 8 9 13 7 8 14 9 5 9 8 7 7 6 13 6 7 17 18 7 3 18 45 50 53 47 45 35 43 53 52 55 62 70 75 73 70 69 72 73 75 76 77 77
7 9 13 24 6 2 8 8 8 7 2 8 10 8 7 6 14 16 11 9 8 17 53 48 50 46 45 31 39 45 45 52 62 72 80 80 73 69 68 70 73 74 74 72
8 2 7 7 9 3 7 10 6 14 2 7 5 12 5 3 9 15 17 13 17 31 49 48 48 45 43 31 38 41 45 53 62 76 84 80 71 67 69 70 70 72 73 75
6 6 3 8 3 20 12 10 6 8 5 8 9 10 9 11 15 20 21 22 17 48 47 49 46 43 35 31 38 42 44 53 67 79 82 74 70 69 69 71 73 74 74 73
5 6 6 4 9 1 7 4 12 9 6 8 2 12 12 12 11 17 30 21 33 46 45 48 44 39 38 35 39 46 46 56 70 82 73 73 72 73 77 77 75 76 78 79
3 8 4 1 5 5 3 6 7 8 8 1 5 14 3 13 17 13 15 23 55 42 42 43 44 46 41 38 44 49 52 61 74 80 70 72 74 76 82 81 78 78 80 78
9 3 6 14 8 6 4 7 9 9 6 11 10 11 3 12 11 16 26 51 50 41 40 41 44 48 43 42 49 53 58 69 79 84 79 76 79 82 89 84 82 82 82 81
8 6 10 12 10 7 3 5 7 11 7 8 16 15 19 17 14 40 51 52 50 44 39 40 42 46 47 47 51 55 64 70 79 78 76 78 82 90 88 84 85 87 86 83
7 7 3 7 9 5 10 14 19 19 12 13 6 17 34 16 22 45 58 53 52 50 44 42 43 48 54 53 51 56 65 74 78 80 75 79 88 87 83 86 89 90 88 82
5 3 4 8 6 6 18 26 28 30 26 29 37 43 72 74 65 53 48 47 53 58 55 52 50 49 58 60 60 60 67 73 76 78 77 85 86 83 86 88 91 91 87 82
9 11 6 10 8 12 18 17 27 17 12 36 26 28 23 20 32 43 40 49 58 61 66 66 60 57 61 61 59 64 69 73 75 72 81 84 81 86 86 88 92 92 87 80
11 9 5 6 6 2 7 5 12 21 17 32 14 21 34 48 51 49 59 59 57 56 60 61 65 63 65 64 61 62 67 72 69 74 80 79 81 82 86 93 93 89 83 79
5 9 3 4 6 16 17 8 14 16 18 34 32 50 60 68 30 49 47 48 60 57 64 65 61 65 70 69 59 64 70 68 69 76 77 80 78 84 87 90 87 82 80 77
6 8 8 6 8 14 9 3 11 15 10 30 42 49 48 32 7 19 51 50 63 65 68 62 62 58 63 60 61 67 66 67 70 75 77 72 73 78 83 84 82 76 74 74
9 3 17 8 9 17 27 15 18 9 13 22 25 27 38 18 42 64 63 68 65 60 63 62 54 62 64 60 62 67 64 64 72 74 66 65 70 74 79 81 76 73 71 72
17 19 10 8 5 20 33 19 17 25 17 22 25 29 39 51 62 69 68 69 67 62 68 62 60 63 60 59 62 62 64 68 69 65 60 63 70 75 77 80 76 71 70 72
6 15 12 25 18 12 55 33 36 47 40 44 49 64 68 69 73 73 73 71 69 70 68 58 62 62 61 60 60 61 64 67 65 60 62 66 72 76 79 80 77 73 69 70
11 21 8 4 23 64 54 63 64 67 70 78 77 78 76 75 72 76 73 74 71 70 62 56 57 59 57 57 61 63 65 60 56 59 65 69 76 81 81 78 74 72 68 68
12 28 10 14 43 55 58 77 85 73 67 70 69 69 72 72 78 74 70 66 65 66 62 60 61 54 54 58 60 64 62 57 56 60 66 72 78 83 86 77 72 68 64 59
31 17 13 24 53 45 56 59 56 55 61 69 73 81 82 74 69 66 68 68 68 66 62 61 53 54 57 57 54 56 56 56 61 66 71 76 82 84 82 77 74 62 63 55
Wind_Direction_850mb
32 58 32 323 349 58 91 85 92 15 355 66 78 96 83 76 72 63 59 55 52 48 42 38 35 29 26 21 17 14 10 10 6 5 3 3 3 1 1 3 2 1 0 359
48 52 331 300 19 62 49 83 50 53 7 93 122 98 109 89 79 73 65 57 52 46 39 35 32 28 24 20 16 14 13 12 10 8 5 1 357 359 358 357 357 357 356 356
77 301 330 64 42 57 40 70 14 127 92 54 134 51 207 115 105 77 63 60 50 39 32 29 25 21 18 16 13 11 11 11 11 9 6 3 359 358 354 355 353 353 351 350
74 357 19 39 61 3 74 340 194 126 85 152 0 271 265 189 160 85 62 55 44 38 30 21 17 14 10 10 9 8 7 7 8 7 5 5 5 2 1 355 351 348 347 347
143 4 15 36 7 337 88 43 126 99 92 86 342 71 260 138 225 208 151 48 42 35 19 11 3 358 357 358 1 3 3 3 5 5 3 1 359 357 355 353 352 352 351 347
92 47 50 313 306 343 294 125 46 56 64 32 274 109 255 190 205 171 197 113 42 27 6 357 354 346 338 345 353 357 359 359 358 358 356 354 352 350 349 349 348 349 348 348
7 25 342 22 350 12 46 55 356 5 17 208 336 33 247 212 180 170 184 189 18 17 359 351 347 345 342 334 346 350 355 358 1 0 356 348 343 342 343 344 344 343 343 344
58 348 12 347 69 260 30 117 134 208 318 279 330 242 255 212 178 170 190 227 274 320 347 345 346 340 340 331 337 344 348 349 351 351 350 348 341 335 336 337 336 337 337 337
107 348 330 42 25 59 300 48 148 104 75 42 271 284 263 172 196 212 234 253 281 325 334 336 335 336 330 323 330 336 338 342 346 346 343 342 338 333 330 329 330 330 331 330
212 53 14 300 347 36 85 143 49 12 50 318 292 280 244 217 227 236 241 248 289 326 334 333 332 331 328 314 320 326 329 337 341 342 338 336 335 331 329 326 325 325 325 325
131 100 287 6 26 57 10 55 54 109 105 160 273 271 214 200 225 225 241 254 315 329 332 337 336 331 321 309 313 319 323 331 336 337 333 332 332 330 330 327 324 324 322 322
33 138 101 240 284 257 256 183 123 115 263 179 137 272 207 222 235 211 244 256 319 320 324 331 333 331 323 309 311 316 320 326 332 335 330 327 327 326 328 325 323 324 323 320
180 338 16 343 357 4 191 180 111 102 81 207 139 262 272 231 239 228 275 300 306 311 317 323 329 330 323 315 313 315 317 322 328 331 326 325 325 323 324 322 321 320 321 320
118 97 166 196 205 134 194 203 154 127 130 189 231 291 264 246 250 279 293 303 303 306 311 318 323 328 324 317 312 311 314 319 324 325 322 322 322 321 320 319 319 319 319 318
117 170 149 271 271 338 244 217 182 201 182 178 255 218 264 269 280 291 297 297 298 298 298 304 314 323 321 312 313 312 313 315 320 321 313 315 318 318 315 315 316 318 318 316
104 217 88 303 4 310 273 255 226 222 228 249 257 272 271 274 275 275 281 293 299 300 294 292 297 306 319 313 303 308 309 310 313 315 311 315 315 314 314 313 314 316 316 314
124 134 93 266 335 330 291 241 194 187 197 217 226 234 268 266 259 269 289 301 301 305 307 294 288 298 312 309 306 302 305 306 309 308 312 313 312 312 312 312 312 313 315 313
132 104 88 241 4 100 237 189 172 199 230 220 262 256 254 260 271 282 288 292 292 303 309 306 299 298 304 306 300 300 303 306 303 308 312 311 311 312 313 312 311 311 311 311
150 120 74 161 207 300 286 186 167 174 258 240 224 251 261 274 280 287 292 292 302 299 304 299 299 302 298 300 297 300 310 303 302 308 311 312 313 315 316 315 313 312 309 309
96 63 124 81 171 230 238 152 180 145 284 242 215 238 254 266 268 263 302 300 302 297 300 298 299 303 301 301 295 303 305 298 302 309 312 314 317 319 319 317 315 313 310 309
146 196 217 202 246 281 252 194 153 89 244 183 212 252 255 207 263 297 298 297 302 307 306 304 297 304 302 298 298 302 296 297 305 309 311 315 319 322 322 318 317 314 312 310
165 164 196 149 159 277 185 141 176 221 208 237 244 264 265 278 291 301 304 306 307 302 306 300 301 303 300 297 299 298 297 302 306 306 310 316 320 323 324 320 317 314 313 311
223 197 186 195 204 232 188 209 244 260 266 273 279 291 296 296 298 299 300 302 299 302 304 299 300 301 300 300 299 296 299 302 304 305 312 317 320 323 325 322 318 315 314 314
247 204 232 99 226 242 241 249 255 263 267 280 286 289 291 290 293 295 299 303 302 306 306 303 302 299 297 297 296 298 299 301 301 305 313 317 319 322 323 322 318 316 316 316
194 156 225 254 268 267 261 264 271 277 281 282 284 287 290 292 296 300 302 301 305 306 305 299 297 295 297 296 297 298 299 302 305 309 314 317 319 321 321 321 319 317 316 318
196 195 204 253 251 249 269 276 280 278 277 283 285 290 295 296 295 301 300 300 304 301 296 294 292 295 297 297 298 296 297 302 308 313 317 319 320 320 321 320 318 316 318 318